Regional Weather Roundup
Issued by NWS

Home | Current Version | Previous Version | Graphics & Text | Print | Product List | Glossary On
Versions: 1 2 3 4 5 6 7 8 9 10 11 12 13 14 15 16 17 18 19 20 21 22 23 24 25 26 27 28 29 30 31 32 33 34 35 36 37 38 39 40 41 42 43 44 45 46 47 48 49 50
000
ASUS43 KOAX 262102
RWRNE

WEATHER ROUNDUP FOR NEBRASKA
NATIONAL WEATHER SERVICE OMAHA NE
300 PM CST WED NOV 26 2014

NOTES: SATELLITE DATA IS BEING USED TO AUGMENT CLOUD COVER ABOVE
       12000 FEET.
       "FAIR" INDICATES FEW OR NO CLOUDS BELOW 12,000 FEET WITH NO
       SIGNIFICANT WEATHER AND/OR OBSTRUCTIONS TO VISIBILITY.

  * THESE STATIONS DO NOT REPORT WEATHER SUCH AS RAIN...SNOW OR FOG.

NEZ001>004-019>022-054>056-262200-
NEBRASKA PANHANDLE

CITY           SKY/WX    TMP DP  RH WIND       PRES   REMARKS
SCOTTSBLUFF    LGT SNOW  30  28  92 CALM      30.23S VSB 3/4
ALLIANCE       FLURRIES  30  25  81 SW6       30.21F WCI  24
CHADRON        CLOUDY    51  23  33 SW5       30.24S
SIDNEY         CLOUDY    30  25  81 CALM      30.23R
$$

NEZ057>060-069>072-079>082-262200-
SOUTHWEST NEBRASKA

CITY           SKY/WX    TMP DP  RH WIND       PRES   REMARKS
NORTH PLATTE   CLOUDY    34  18  52 N10       30.27R WCI  26
IMPERIAL       LGT SNOW  32  24  72 N8        30.28R WCI  25
MCCOOK         CLOUDY    37  18  46 NW14      30.29R WCI  28
$$

NEZ005>010-023>029-035>040-094-262200-
NORTH CENTRAL NEBRASKA

CITY           SKY/WX    TMP DP  RH WIND       PRES   REMARKS
VALENTINE      CLOUDY    28  17  63 N8        30.29R WCI  20
BROKEN BOW     CLOUDY    31  18  58 N17       30.26S WCI  19
ORD            CLOUDY    29  17  61 NW15G24   30.28R WCI  18
$$

NEZ041-046>049-061>064-073>077-083>087-262200-
SOUTH CENTRAL NEBRASKA

CITY           SKY/WX    TMP DP  RH WIND       PRES   REMARKS
GRAND ISLAND   CLOUDY    30  18  60 N22       30.28R WCI  17
HASTINGS       CLOUDY    31  19  61 N20G28    30.27R WCI  19
KEARNEY *      CLOUDY    30  18  59 NW17      30.29R WCI  18
$$

NEZ011>018-030>034-042>045-262200-
NORTHEAST NEBRASKA

CITY           SKY/WX    TMP DP  RH WIND       PRES   REMARKS
NORFOLK        CLOUDY    25  18  74 NW18      30.27R WCI  11
COLUMBUS *     CLOUDY    27  16  63 NW21      30.27R WCI  13
TEKAMAH        CLOUDY    29  21  72 N28       30.23R WCI  14
$$

NEZ050>053-065>068-078-088>093-262200-
SOUTHEAST NEBRASKA

CITY           SKY/WX    TMP DP  RH WIND       PRES   REMARKS
LINCOLN        CLOUDY    28  18  66 N25G33    30.25R WCI  13
OMAHA EPPLEY   CLOUDY    29  22  75 N23G33    30.20R WCI  15
FALLS CITY     CLOUDY    32  23  69 NW23G36   30.14R WCI  19
$$

NEZ044-045-051>053-067-262200-
OMAHA AREA

CITY           SKY/WX    TMP DP  RH WIND       PRES   REMARKS
OMAHA EPPLEY   CLOUDY    29  22  75 N23G33    30.20R WCI  15
OFFUTT AFB     CLOUDY    30  21  69 NW18G28   30.18R WCI  18
$$


USA.gov is the U.S. government's official web portal to all federal, state and local government web resources and services.